Weather History for KCIR - December, 2013

Change the Weather History Date:

Thursday, December 12, 2013

  Actual Average Record
Temperature  
Mean Temperature 18 °F -  
Max Temperature 29 °F 46 °F 68 °F (1948)
Min Temperature 8 °F 33 °F 0 °F (1962)
Degree Days  
Heating Degree Days 46    
Moisture  
Dew Point 9 °F    
Average Humidity 62    
Maximum Humidity 82    
Minimum Humidity 35    
Precipitation  
Precipitation 0.00 in - - ()
Sea Level Pressure  
Sea Level Pressure 30.55 in    
Wind  
Wind Speed 3 mph (WSW)    
Max Wind Speed 7 mph    
Max Gust Speed -    
Visibility 10 miles    
Events      
Averages and records for this station are not official NWS values.
T = Trace of Precipitation, MM = Missing Value Source: NWS Daily Summary

Daily Weather History Graph

Daily Weather History Graph

Search for Another Location

Airport or City:

Trip Planner

Search our weather history database for the weather conditions in past years. The results will help you decide how hot, cold, wet, or windy it might be!

Date:

Astronomy

Dec. 12, 2013 Rise Set
Actual Time 7:01 AM CST 4:40 PM CST
Civil Twilight 6:32 AM CST 5:09 PM CST
Nautical Twilight 5:59 AM CST 5:41 PM CST
Astronomical Twilight 5:28 AM CST 6:13 PM CST
Moon 1:43 PM CST (12/12) 2:28 AM CST (12/12)
Length of Visible Light 10h 37m
Length of Day
9h 39m
Waxing Gibbous, 80% of the Moon is Illuminated
Dec 12
Waxing Gibbous
Dec 17
Full
Dec 25
Last Quarter
Jan 1
New
Jan 7
First Quarter

Hourly Weather History & Observations

Time (CST) Temp. Windchill Dew Point Humidity Pressure Visibility Wind Dir Wind Speed Gust Speed Precip Events Conditions
12:15 AM 21.6 °F 14.0 °F 12.2 °F 67% 30.64 in 10.0 mi North 5.8 mph - N/A   Clear
12:35 AM 20.7 °F 11.9 °F 10.9 °F 66% 30.65 in 10.0 mi North 6.9 mph - N/A   Clear
12:55 AM 19.9 °F 12.1 °F 9.9 °F 65% 30.64 in 10.0 mi North 5.8 mph - N/A   Clear
1:15 AM 19.0 °F 11.1 °F 9.1 °F 65% 30.64 in 10.0 mi North 5.8 mph - N/A   Clear
1:35 AM 18.9 °F 12.1 °F 8.6 °F 64% 30.64 in 10.0 mi North 4.6 mph - N/A   Clear
1:55 AM 18.1 °F 11.3 °F 7.7 °F 64% 30.65 in 10.0 mi North 4.6 mph - N/A   Clear
2:15 AM 17.8 °F 12.5 °F 7.5 °F 64% 30.65 in 10.0 mi North 3.5 mph - N/A   Clear
2:35 AM 17.6 °F 12.3 °F 7.3 °F 64% 30.64 in 10.0 mi NNE 3.5 mph - N/A   Clear
2:55 AM 16.3 °F 10.8 °F 6.4 °F 65% 30.64 in 10.0 mi NE 3.5 mph - N/A   Clear
3:15 AM 15.6 °F 10.0 °F 7.3 °F 70% 30.63 in 10.0 mi NNE 3.5 mph - N/A   Clear
3:35 AM 15.3 °F 7.9 °F 6.1 °F 67% 30.63 in 10.0 mi NNE 4.6 mph - N/A   Clear
3:55 AM 16.3 °F 10.8 °F 5.9 °F 64% 30.62 in 10.0 mi North 3.5 mph - N/A   Clear
4:15 AM 11.7 °F 5.5 °F 3.6 °F 70% 30.62 in 10.0 mi North 3.5 mph - N/A   Clear
4:35 AM 14.9 °F 9.2 °F 6.8 °F 70% 30.62 in 10.0 mi North 3.5 mph - N/A   Clear
4:55 AM 12.9 °F - 5.0 °F 71% 30.61 in 10.0 mi Calm Calm - N/A   Clear
5:15 AM 11.1 °F - 4.1 °F 73% 30.61 in 10.0 mi Calm Calm - N/A   Clear
5:35 AM 13.8 °F - 6.1 °F 71% 30.61 in 10.0 mi Calm Calm - N/A   Clear
5:55 AM 10.4 °F - 3.7 °F 74% 30.62 in 10.0 mi Calm Calm - N/A   Clear
6:15 AM 12.9 °F - 5.9 °F 74% 30.61 in 10.0 mi Calm Calm - N/A   Clear
6:35 AM 8.4 °F - 1.0 °F 72% 30.62 in 10.0 mi Calm Calm - N/A   Clear
6:55 AM 8.2 °F - 2.3 °F 77% 30.61 in 10.0 mi Calm Calm - N/A   Clear
7:15 AM 10.8 °F - 4.6 °F 76% 30.61 in 10.0 mi Calm Calm - N/A   Clear
7:35 AM 10.6 °F - 4.6 °F 77% 30.62 in 10.0 mi Calm Calm - N/A   Clear
7:55 AM 10.0 °F - 4.5 °F 78% 30.63 in 10.0 mi Calm Calm - N/A   Clear
8:15 AM 11.3 °F - 5.7 °F 78% 30.64 in 10.0 mi Calm Calm - N/A   Clear
8:35 AM 13.5 °F - 7.3 °F 77% 30.64 in 10.0 mi Calm Calm - N/A   Clear
8:55 AM 16.5 °F - 7.3 °F 67% 30.64 in 10.0 mi Calm Calm - N/A   Clear
9:15 AM 18.9 °F 13.7 °F 8.6 °F 64% 30.65 in 10.0 mi North 3.5 mph - N/A   Clear
9:35 AM 20.3 °F - 9.7 °F 64% 30.66 in 10.0 mi Calm Calm - N/A   Clear
9:55 AM 21.7 °F - 10.4 °F 62% 30.66 in 10.0 mi Calm Calm - N/A   Clear
10:15 AM 22.6 °F - 10.6 °F 60% 30.65 in 10.0 mi Calm Calm - N/A   Clear
10:35 AM 23.5 °F - 10.9 °F 59% 30.65 in 10.0 mi Calm Calm - N/A   Clear
10:55 AM 25.3 °F 18.5 °F 11.7 °F 56% 30.64 in 10.0 mi West 5.8 mph - N/A   Clear
11:15 AM 25.7 °F 21.5 °F 11.3 °F 55% 30.63 in 10.0 mi West 3.5 mph - N/A   Clear
11:35 AM 27.0 °F - 11.5 °F 52% 30.61 in 10.0 mi Calm Calm - N/A   Clear
11:55 AM 27.3 °F 20.9 °F 9.5 °F 47% 30.60 in 10.0 mi WSW 5.8 mph - N/A   Clear
12:15 PM 27.5 °F 21.1 °F 9.0 °F 46% 30.59 in 10.0 mi WSW 5.8 mph - N/A   Clear
12:35 PM 28.2 °F 22.0 °F 4.8 °F 37% 30.58 in 10.0 mi WSW 5.8 mph - N/A   Clear
12:55 PM 28.4 °F 23.3 °F 6.6 °F 40% 30.57 in 10.0 mi West 4.6 mph - N/A   Clear
1:15 PM 28.4 °F 23.3 °F 4.3 °F 36% 30.56 in 10.0 mi SW 4.6 mph - N/A   Clear
1:35 PM 29.1 °F 24.1 °F 5.7 °F 37% 30.55 in 10.0 mi WSW 4.6 mph - N/A   Clear
1:55 PM 29.3 °F 24.3 °F 6.6 °F 38% 30.54 in 10.0 mi WSW 4.6 mph - N/A   Clear
2:15 PM 29.7 °F 24.7 °F 6.3 °F 37% 30.53 in 10.0 mi SW 4.6 mph - N/A   Clear
2:55 PM 28.9 °F 22.8 °F 4.1 °F 35% 30.53 in 10.0 mi SW 5.8 mph - N/A   Clear
3:15 PM 28.9 °F 23.9 °F 5.4 °F 37% 30.53 in 10.0 mi South 4.6 mph - N/A   Clear
3:35 PM 28.4 °F 24.6 °F 6.3 °F 39% 30.52 in 10.0 mi South 3.5 mph - N/A   Clear
3:55 PM 27.9 °F 24.0 °F 6.8 °F 41% 30.52 in 10.0 mi South 3.5 mph - N/A   Clear
4:15 PM 27.1 °F 23.2 °F 6.8 °F 42% 30.51 in 10.0 mi South 3.5 mph - N/A   Clear
4:35 PM 27.0 °F - 7.7 °F 44% 30.50 in 10.0 mi Calm Calm - N/A   Clear
4:55 PM 26.4 °F 22.4 °F 8.6 °F 47% 30.49 in 10.0 mi South 3.5 mph - N/A   Clear
5:15 PM 24.8 °F 19.1 °F 9.1 °F 51% 30.48 in 10.0 mi South 4.6 mph - N/A   Clear
5:35 PM 24.3 °F 18.4 °F 10.9 °F 57% 30.48 in 10.0 mi South 4.6 mph - N/A   Clear
5:55 PM 24.3 °F 18.4 °F 12.0 °F 60% 30.47 in 10.0 mi SSW 4.6 mph - N/A   Clear
6:15 PM 24.8 °F 20.5 °F 13.1 °F 61% 30.46 in 10.0 mi South 3.5 mph - N/A   Clear
6:35 PM 22.8 °F 18.2 °F 12.7 °F 65% 30.45 in 10.0 mi South 3.5 mph - N/A   Clear
6:55 PM 24.1 °F 18.2 °F 13.6 °F 64% 30.44 in 10.0 mi South 4.6 mph - N/A   Clear
7:15 PM 24.3 °F 18.4 °F 13.8 °F 64% 30.44 in 10.0 mi South 4.6 mph - N/A   Clear
7:35 PM 24.3 °F 17.3 °F 14.4 °F 66% 30.44 in 10.0 mi South 5.8 mph - N/A   Clear
7:55 PM 24.3 °F 19.9 °F 14.0 °F 65% 30.44 in 10.0 mi SSW 3.5 mph - N/A   Clear
8:15 PM 24.6 °F 20.3 °F 14.4 °F 65% 30.43 in 10.0 mi SSW 3.5 mph - N/A   Clear
8:35 PM 22.5 °F - 13.1 °F 67% 30.43 in 10.0 mi Calm Calm - N/A   Clear
8:55 PM 19.6 °F - 11.8 °F 72% 30.42 in 10.0 mi Calm Calm - N/A   Clear
9:15 PM 19.9 °F 14.9 °F 12.7 °F 74% 30.42 in 10.0 mi South 3.5 mph - N/A   Clear
9:35 PM 18.1 °F - 11.1 °F 74% 30.41 in 10.0 mi Calm Calm - N/A   Clear
9:55 PM 15.1 °F - 8.8 °F 76% 30.40 in 10.0 mi Calm Calm - N/A   Clear
10:15 PM 17.4 °F - 11.7 °F 78% 30.40 in 10.0 mi Calm Calm - N/A   Clear
10:35 PM 17.1 °F - 11.7 °F 79% 30.39 in 10.0 mi Calm Calm - N/A   Clear
10:55 PM 17.4 °F - 12.4 °F 81% 30.39 in 10.0 mi Calm Calm - N/A   Clear
11:15 PM 16.2 °F - 11.1 °F 81% 30.39 in 10.0 mi Calm Calm - N/A   Clear
11:35 PM 14.5 °F - 9.9 °F 82% 30.38 in 10.0 mi Calm Calm - N/A   Clear
11:55 PM 14.5 °F - 10.0 °F 82% 30.38 in 10.0 mi Calm Calm - N/A   Clear